This is the latest recevied weather packets stored in our database for station/object WX2NJ. If no packets are shown the sender has not sent any weather packets the latest 10 day(s).
| Time | Temp. | Humidity | Pressure | Rain* | Wind** | Luminosity | Snow |
|---|---|---|---|---|---|---|---|
| 1777595191 | 11.67° C | 89% | 1011.6 hPa | 0 mm | - | 0 W/m² | - |
| 1777594887 | 11.67° C | 89% | 1011.6 hPa | 0 mm | - | 0 W/m² | - |
| 1777594583 | 12.22° C | 88% | 1011.7 hPa | 0 mm | - | 0 W/m² | - |
| 1777594280 | 12.22° C | 88% | 1011.8 hPa | 0 mm | - | 0 W/m² | - |
| 1777593976 | 12.22° C | 87% | 1011.4 hPa | 0 mm | - | 0 W/m² | - |
| 1777593672 | 12.78° C | 87% | 1011.7 hPa | 0 mm | - | 0 W/m² | - |
| 1777593368 | 12.78° C | 87% | 1011.7 hPa | 0 mm | - | 0 W/m² | - |
| 1777593067 | 13.33° C | 86% | 1011.6 hPa | 0 mm | - | 0 W/m² | - |
| 1777592766 | 13.33° C | 86% | 1011.5 hPa | 0 mm | - | 0 W/m² | - |
| 1777592463 | 13.33° C | 85% | 1011.4 hPa | 0 mm | - | 2 W/m² | - |
| 1777592157 | 13.89° C | 85% | 1011.5 hPa | 0 mm | - | 4 W/m² | - |
| 1777591855 | 13.89° C | 85% | 1011.5 hPa | 0 mm | - | 6 W/m² | - |
| 1777591551 | 13.89° C | 85% | 1011.4 hPa | 0 mm | - | 9 W/m² | - |
| 1777591247 | 14.44° C | 84% | 1011.4 hPa | 0 mm | - | 12 W/m² | - |
| 1777590942 | 14.44° C | 84% | 1011.1 hPa | 0 mm | - | 16 W/m² | - |
| 1777590638 | 14.44° C | 84% | 1011.2 hPa | 0 mm | - | 23 W/m² | - |
| 1777590335 | 14.44° C | 83% | 1011.2 hPa | 0 mm | - | 21 W/m² | - |
| 1777590032 | 14.44° C | 83% | 1011.3 hPa | 0 mm | - | 22 W/m² | - |
| 1777589729 | 14.44° C | 82% | 1011.3 hPa | 0 mm | - | 24 W/m² | - |
| 1777589427 | 15° C | 81% | 1011.2 hPa | 0 mm | - | 24 W/m² | - |
| 1777589123 | 15° C | 81% | 1011.3 hPa | 0 mm | - | 28 W/m² | - |
| 1777588819 | 15° C | 80% | 1011.3 hPa | 0 mm | - | 29 W/m² | - |
| 1777588515 | 15° C | 80% | 1011.2 hPa | 0 mm | - | 38 W/m² | - |
| 1777588210 | 15.56° C | 79% | 1011.2 hPa | 0 mm | - | 39 W/m² | - |
| 1777587906 | 15.56° C | 78% | 1011.3 hPa | 0 mm | - | 42 W/m² | - |
* Rain latest hour (hover to see other rain measurements)
** Current wind speed in m/s (hover to see current wind gust speed)